Year,Month,Day,Hour,Minute,Value (Times are PST for windgust in km/hr)
2006,12,15,00,00,4.80
2006,12,15,00,01,4.80
2006,12,15,00,02,4.80
2006,12,15,00,03,4.80
2006,12,15,00,04,3.20
2006,12,15,00,05,1.60
2006,12,15,00,06,3.20
2006,12,15,00,07,4.80
2006,12,15,00,08,3.20
2006,12,15,00,09,6.40
2006,12,15,00,10,6.40
2006,12,15,00,11,6.40
2006,12,15,00,12,6.40
2006,12,15,00,13,4.80
2006,12,15,00,14,0.00
2006,12,15,00,15,1.60
2006,12,15,00,16,4.80
2006,12,15,00,17,4.80
2006,12,15,00,18,6.40
2006,12,15,00,19,11.30
2006,12,15,00,20,6.40
2006,12,15,00,21,8.10
2006,12,15,00,22,12.90
2006,12,15,00,23,19.30
2006,12,15,00,24,38.60
2006,12,15,00,25,24.20
2006,12,15,00,26,20.90
2006,12,15,00,27,33.80
2006,12,15,00,28,38.60
2006,12,15,00,29,24.20
2006,12,15,00,30,24.20
2006,12,15,00,31,35.40
2006,12,15,00,32,24.20
2006,12,15,00,33,29.00
2006,12,15,00,34,29.00
2006,12,15,00,35,32.20
2006,12,15,00,36,46.70
2006,12,15,00,37,41.80
2006,12,15,00,38,29.00
2006,12,15,00,39,30.60
2006,12,15,00,40,41.80
2006,12,15,00,41,45.10
2006,12,15,00,42,45.10
2006,12,15,00,43,51.50
2006,12,15,00,44,51.50
2006,12,15,00,45,35.40
2006,12,15,00,46,30.60
2006,12,15,00,47,27.40
2006,12,15,00,48,33.80
2006,12,15,00,49,37.00
2006,12,15,00,50,33.80
2006,12,15,00,51,27.40
2006,12,15,00,52,43.50
2006,12,15,00,53,40.20
2006,12,15,00,54,32.20
2006,12,15,00,55,54.70
2006,12,15,00,56,54.70
2006,12,15,00,57,43.50
2006,12,15,00,58,25.70
2006,12,15,00,59,46.70
2006,12,15,01,00,40.20
2006,12,15,01,01,45.10
2006,12,15,01,02,35.40
2006,12,15,01,03,53.10
2006,12,15,01,04,30.60
2006,12,15,01,05,37.00
2006,12,15,01,06,38.60
2006,12,15,01,07,24.20
2006,12,15,01,08,25.70
2006,12,15,01,09,46.70
2006,12,15,01,10,38.60
2006,12,15,01,11,41.80
2006,12,15,01,12,30.60
2006,12,15,01,13,22.50
2006,12,15,01,14,41.80
2006,12,15,01,15,30.60
2006,12,15,01,16,59.50
2006,12,15,01,17,43.50
2006,12,15,01,18,35.40
2006,12,15,01,19,40.20
2006,12,15,01,20,33.80
2006,12,15,01,21,27.40
2006,12,15,01,22,49.90
2006,12,15,01,23,35.40
2006,12,15,01,24,33.80
2006,12,15,01,25,41.80
2006,12,15,01,26,54.70
2006,12,15,01,27,32.20
2006,12,15,01,28,48.30
2006,12,15,01,29,40.20
2006,12,15,01,30,49.90
2006,12,15,01,31,38.60
2006,12,15,01,32,35.40
2006,12,15,01,33,40.20
2006,12,15,01,34,62.70
2006,12,15,01,35,33.80
2006,12,15,01,36,40.20
2006,12,15,01,37,32.20
2006,12,15,01,38,14.50
2006,12,15,01,39,30.60
2006,12,15,01,40,53.10
2006,12,15,01,41,41.80
2006,12,15,01,42,20.90
2006,12,15,01,43,20.90
2006,12,15,01,44,40.20
2006,12,15,01,45,51.50
2006,12,15,01,46,40.20
2006,12,15,01,47,41.80
2006,12,15,01,48,56.30
2006,12,15,01,49,49.90
2006,12,15,01,50,35.40
2006,12,15,01,51,56.30
2006,12,15,01,52,32.20
2006,12,15,01,53,53.10
2006,12,15,01,54,41.80
2006,12,15,01,55,48.30
2006,12,15,01,56,37.00
2006,12,15,01,57,54.70
2006,12,15,01,58,64.40
2006,12,15,01,59,40.20
2006,12,15,02,00,45.10
2006,12,15,02,01,51.50
2006,12,15,02,02,66.00
2006,12,15,02,03,67.60
2006,12,15,02,04,32.20
2006,12,15,02,05,41.80
2006,12,15,02,06,32.20
2006,12,15,02,07,41.80
2006,12,15,02,08,51.50
2006,12,15,02,09,40.20
2006,12,15,02,10,37.00
2006,12,15,02,11,41.80
2006,12,15,02,12,41.80
2006,12,15,02,13,37.00
2006,12,15,02,14,41.80
2006,12,15,02,15,46.70
2006,12,15,02,16,40.20
2006,12,15,02,17,40.20
2006,12,15,02,18,33.80
2006,12,15,02,19,40.20
2006,12,15,02,20,53.10
2006,12,15,02,21,53.10
2006,12,15,02,22,29.00
2006,12,15,02,23,30.60
2006,12,15,02,24,27.40
2006,12,15,02,25,53.10
2006,12,15,02,26,53.10
2006,12,15,02,27,56.30
2006,12,15,02,28,43.50
2006,12,15,02,29,54.70
2006,12,15,02,30,64.40
2006,12,15,02,31,37.00
2006,12,15,02,32,51.50
2006,12,15,02,33,59.50
2006,12,15,02,34,53.10
2006,12,15,02,35,41.80
2006,12,15,02,36,53.10
2006,12,15,02,37,33.80
2006,12,15,02,38,38.60
2006,12,15,02,39,45.10
2006,12,15,02,40,33.80
2006,12,15,02,41,51.50
2006,12,15,02,42,40.20
2006,12,15,02,43,37.00
2006,12,15,02,44,53.10
2006,12,15,02,45,51.50
2006,12,15,02,46,51.50
2006,12,15,02,47,78.80
2006,12,15,02,48,77.30
2006,12,15,02,49,53.10
2006,12,15,02,50,57.90
2006,12,15,02,51,49.90
2006,12,15,02,52,43.50
2006,12,15,02,53,41.80
2006,12,15,02,54,49.90
2006,12,15,02,55,74.00
2006,12,15,02,56,53.10
2006,12,15,02,57,46.70
2006,12,15,02,58,53.10
2006,12,15,02,59,33.80
2006,12,15,03,00,27.40
2006,12,15,03,01,54.70
2006,12,15,03,02,53.10
2006,12,15,03,03,46.70
2006,12,15,03,04,69.20
2006,12,15,03,05,67.60
2006,12,15,03,06,62.70
2006,12,15,03,07,64.40
2006,12,15,03,08,62.70
2006,12,15,03,09,62.70
2006,12,15,03,10,61.20
2006,12,15,03,11,37.00
2006,12,15,03,12,62.70
2006,12,15,03,13,62.70
2006,12,15,03,14,62.70
2006,12,15,03,15,53.10
2006,12,15,03,16,69.20
2006,12,15,03,17,82.10
2006,12,15,03,18,64.40
2006,12,15,03,19,38.60
2006,12,15,03,20,25.70
2006,12,15,03,21,37.00
2006,12,15,03,22,64.40
2006,12,15,03,23,56.30
2006,12,15,03,24,49.90
2006,12,15,03,25,41.80
2006,12,15,03,26,40.20
2006,12,15,03,27,33.80
2006,12,15,03,28,46.70
2006,12,15,03,29,56.30
2006,12,15,03,30,45.10
2006,12,15,03,31,51.50
2006,12,15,03,32,49.90
2006,12,15,03,33,45.10
2006,12,15,03,34,27.40
2006,12,15,03,35,37.00
2006,12,15,03,36,56.30
2006,12,15,03,37,49.90
2006,12,15,03,38,45.10
2006,12,15,03,39,35.40
2006,12,15,03,40,35.40
2006,12,15,03,41,30.60
2006,12,15,03,42,17.70
2006,12,15,03,43,17.70
2006,12,15,03,44,48.30
2006,12,15,03,45,62.70
2006,12,15,03,46,54.70
2006,12,15,03,47,51.50
2006,12,15,03,48,40.20
2006,12,15,03,49,53.10
2006,12,15,03,50,53.10
2006,12,15,03,51,54.70
2006,12,15,03,52,51.50
2006,12,15,03,53,49.90
2006,12,15,03,54,51.50
2006,12,15,03,55,53.10
2006,12,15,03,56,49.90
2006,12,15,03,57,48.30
2006,12,15,03,58,59.50
2006,12,15,03,59,48.30
2006,12,15,04,00,53.10
2006,12,15,04,01,38.60
2006,12,15,04,02,37.00
2006,12,15,04,03,54.70
2006,12,15,04,04,70.80
2006,12,15,04,05,37.00
2006,12,15,04,06,45.10
2006,12,15,04,07,53.10
2006,12,15,04,08,45.10
2006,12,15,04,09,43.50
2006,12,15,04,10,41.80
2006,12,15,04,11,54.70
2006,12,15,04,12,56.30
2006,12,15,04,13,49.90
2006,12,15,04,14,29.00
2006,12,15,04,15,37.00
2006,12,15,04,16,49.90
2006,12,15,04,17,51.50
2006,12,15,04,18,40.20
2006,12,15,04,19,43.50
2006,12,15,04,20,48.30
2006,12,15,04,21,43.50
2006,12,15,04,22,53.10
2006,12,15,04,23,45.10
2006,12,15,04,24,56.30
2006,12,15,04,25,46.70
2006,12,15,04,26,35.40
2006,12,15,04,27,51.50
2006,12,15,04,28,45.10
2006,12,15,04,29,56.30
2006,12,15,04,30,54.70
2006,12,15,04,31,49.90
2006,12,15,04,32,38.60
2006,12,15,04,33,29.00
2006,12,15,04,34,20.90
2006,12,15,04,35,38.60
2006,12,15,04,36,37.00
2006,12,15,04,37,38.60
2006,12,15,04,38,37.00
2006,12,15,04,39,33.80
2006,12,15,04,40,35.40
2006,12,15,04,41,45.10
2006,12,15,04,42,41.80
2006,12,15,04,43,49.90
2006,12,15,04,44,37.00
2006,12,15,04,45,49.90
2006,12,15,04,46,45.10
2006,12,15,04,47,48.30
2006,12,15,04,48,41.80
2006,12,15,04,49,45.10
2006,12,15,04,50,35.40
2006,12,15,04,51,53.10
2006,12,15,04,52,38.60
2006,12,15,04,53,35.40
2006,12,15,04,54,32.20
2006,12,15,04,55,37.00
2006,12,15,04,56,46.70
2006,12,15,04,57,43.50
2006,12,15,04,58,30.60
2006,12,15,04,59,30.60
2006,12,15,05,00,30.60
2006,12,15,05,01,41.80
2006,12,15,05,02,45.10
2006,12,15,05,03,54.70
2006,12,15,05,04,48.30
2006,12,15,05,05,40.20
2006,12,15,05,06,32.20
2006,12,15,05,07,37.00
2006,12,15,05,08,41.80
2006,12,15,05,09,27.40
2006,12,15,05,10,41.80
2006,12,15,05,11,45.10
2006,12,15,05,12,48.30
2006,12,15,05,13,29.00
2006,12,15,05,14,32.20
2006,12,15,05,15,37.00
2006,12,15,05,16,33.80
2006,12,15,05,17,41.80
2006,12,15,05,18,33.80
2006,12,15,05,19,29.00
2006,12,15,05,20,38.60
2006,12,15,05,21,43.50
2006,12,15,05,22,17.70
2006,12,15,05,23,37.00
2006,12,15,05,24,37.00
2006,12,15,05,25,32.20
2006,12,15,05,26,33.80
2006,12,15,05,27,20.90
2006,12,15,05,28,46.70
2006,12,15,05,29,46.70
2006,12,15,05,30,40.20
2006,12,15,05,31,20.90
2006,12,15,05,32,43.50
2006,12,15,05,33,37.00
2006,12,15,05,34,27.40
2006,12,15,05,35,41.80
2006,12,15,05,36,40.20
2006,12,15,05,37,40.20
2006,12,15,05,38,33.80
2006,12,15,05,39,30.60
2006,12,15,05,40,51.50
2006,12,15,05,41,38.60
2006,12,15,05,42,49.90
2006,12,15,05,43,45.10
2006,12,15,05,44,38.60
2006,12,15,05,45,43.50
2006,12,15,05,46,40.20
2006,12,15,05,47,40.20
2006,12,15,05,48,32.20
2006,12,15,05,49,37.00
2006,12,15,05,50,43.50
2006,12,15,05,51,43.50
2006,12,15,05,52,46.70
2006,12,15,05,53,45.10
2006,12,15,05,54,43.50
2006,12,15,05,55,41.80
2006,12,15,05,56,29.00
2006,12,15,05,57,30.60
2006,12,15,05,58,32.20
2006,12,15,05,59,37.00
2006,12,15,06,00,9.60
2006,12,15,06,01,9.60
2006,12,15,06,02,30.60
2006,12,15,06,03,35.40
2006,12,15,06,04,33.80
2006,12,15,06,05,27.40
2006,12,15,06,06,22.50
2006,12,15,06,07,35.40
2006,12,15,06,08,40.20
2006,12,15,06,09,43.50
2006,12,15,06,10,27.40
2006,12,15,06,11,32.20
2006,12,15,06,12,30.60
2006,12,15,06,13,35.40
2006,12,15,06,14,32.20
2006,12,15,06,15,32.20
2006,12,15,06,16,37.00
2006,12,15,06,17,29.00
2006,12,15,06,18,38.60
2006,12,15,06,19,33.80
2006,12,15,06,20,33.80
2006,12,15,06,21,33.80
2006,12,15,06,22,38.60
2006,12,15,06,23,33.80
2006,12,15,06,24,40.20
2006,12,15,06,25,29.00
2006,12,15,06,26,45.10
2006,12,15,06,27,35.40
2006,12,15,06,28,32.20
2006,12,15,06,29,25.70
2006,12,15,06,30,35.40
2006,12,15,06,31,32.20
2006,12,15,06,32,41.80
2006,12,15,06,33,29.00
2006,12,15,06,34,40.20
2006,12,15,06,35,27.40
2006,12,15,06,36,29.00
2006,12,15,06,37,30.60
2006,12,15,06,38,30.60
2006,12,15,06,39,29.00
2006,12,15,06,40,27.40
2006,12,15,06,41,25.70
2006,12,15,06,42,32.20
2006,12,15,06,43,24.20
2006,12,15,06,44,32.20
2006,12,15,06,45,35.40
2006,12,15,06,46,33.80
2006,12,15,06,47,41.80
2006,12,15,06,48,20.90
2006,12,15,06,49,38.60
2006,12,15,06,50,32.20
2006,12,15,06,51,37.00
2006,12,15,06,52,37.00
2006,12,15,06,53,35.40
2006,12,15,06,54,38.60
2006,12,15,06,55,25.70
2006,12,15,06,56,29.00
2006,12,15,06,57,27.40
2006,12,15,06,58,27.40
2006,12,15,06,59,30.60
2006,12,15,07,00,37.00
2006,12,15,07,01,41.80
2006,12,15,07,02,40.20
2006,12,15,07,03,29.00
2006,12,15,07,04,32.20
2006,12,15,07,05,41.80
2006,12,15,07,06,33.80
2006,12,15,07,07,37.00
2006,12,15,07,08,37.00
2006,12,15,07,09,40.20
2006,12,15,07,10,29.00
2006,12,15,07,11,40.20
2006,12,15,07,12,43.50
2006,12,15,07,13,51.50
2006,12,15,07,14,29.00
2006,12,15,07,15,45.10
2006,12,15,07,16,38.60
2006,12,15,07,17,40.20
2006,12,15,07,18,40.20
2006,12,15,07,19,32.20
2006,12,15,07,20,37.00
2006,12,15,07,21,38.60
2006,12,15,07,22,33.80
2006,12,15,07,23,37.00
2006,12,15,07,24,56.30
2006,12,15,07,25,45.10
2006,12,15,07,26,33.80
2006,12,15,07,27,37.00
2006,12,15,07,28,37.00
2006,12,15,07,29,32.20
2006,12,15,07,30,46.70
2006,12,15,07,31,29.00
2006,12,15,07,32,32.20
2006,12,15,07,33,30.60
2006,12,15,07,34,37.00
2006,12,15,07,35,32.20
2006,12,15,07,36,30.60
2006,12,15,07,37,30.60
2006,12,15,07,38,48.30
2006,12,15,07,39,27.40
2006,12,15,07,40,22.50
2006,12,15,07,41,29.00
2006,12,15,07,42,32.20
2006,12,15,07,43,37.00
2006,12,15,07,44,25.70
2006,12,15,07,45,37.00
2006,12,15,07,46,40.20
2006,12,15,07,47,35.40
2006,12,15,07,48,27.40
2006,12,15,07,49,27.40
2006,12,15,07,50,35.40
2006,12,15,07,51,30.60
2006,12,15,07,52,24.20
2006,12,15,07,53,19.30
2006,12,15,07,54,20.90
2006,12,15,07,55,45.10
2006,12,15,07,56,30.60
2006,12,15,07,57,9.60
2006,12,15,07,58,24.20
2006,12,15,07,59,32.20
2006,12,15,08,00,38.60
2006,12,15,08,01,48.30
2006,12,15,08,02,35.40
2006,12,15,08,03,30.60
2006,12,15,08,04,51.50
2006,12,15,08,05,41.80
2006,12,15,08,06,30.60
2006,12,15,08,07,33.80
2006,12,15,08,08,32.20
2006,12,15,08,09,29.00
2006,12,15,08,10,37.00
2006,12,15,08,11,40.20
2006,12,15,08,12,45.10
2006,12,15,08,13,38.60
2006,12,15,08,14,45.10
2006,12,15,08,15,29.00
2006,12,15,08,16,27.40
2006,12,15,08,17,32.20
2006,12,15,08,18,32.20
2006,12,15,08,19,33.80
2006,12,15,08,20,32.20
2006,12,15,08,21,30.60
2006,12,15,08,22,40.20
2006,12,15,08,23,32.20
2006,12,15,08,24,27.40
2006,12,15,08,25,33.80
2006,12,15,08,26,43.50
2006,12,15,08,27,46.70
2006,12,15,08,28,30.60
2006,12,15,08,29,37.00
2006,12,15,08,30,35.40
2006,12,15,08,31,35.40
2006,12,15,08,32,38.60
2006,12,15,08,33,33.80
2006,12,15,08,34,27.40
2006,12,15,08,35,30.60
2006,12,15,08,36,27.40
2006,12,15,08,37,27.40
2006,12,15,08,38,33.80
2006,12,15,08,39,41.80
2006,12,15,08,40,45.10
2006,12,15,08,41,40.20
2006,12,15,08,42,33.80
2006,12,15,08,43,32.20
2006,12,15,08,44,37.00
2006,12,15,08,45,48.30
2006,12,15,08,46,40.20
2006,12,15,08,47,33.80
2006,12,15,08,48,29.00
2006,12,15,08,49,25.70
2006,12,15,08,50,40.20
2006,12,15,08,51,24.20
2006,12,15,08,52,32.20
2006,12,15,08,53,37.00
2006,12,15,08,54,29.00
2006,12,15,08,55,38.60
2006,12,15,08,56,33.80
2006,12,15,08,57,38.60
2006,12,15,08,58,27.40
2006,12,15,08,59,35.40
2006,12,15,09,00,33.80
2006,12,15,09,01,48.30
2006,12,15,09,02,29.00
2006,12,15,09,03,22.50
2006,12,15,09,04,33.80
2006,12,15,09,05,32.20
2006,12,15,09,06,29.00
2006,12,15,09,07,29.00
2006,12,15,09,08,16.10
2006,12,15,09,09,22.50
2006,12,15,09,10,24.20
2006,12,15,09,11,33.80
2006,12,15,09,12,35.40
2006,12,15,09,13,24.20
2006,12,15,09,14,30.60
2006,12,15,09,15,41.80
2006,12,15,09,16,32.20
2006,12,15,09,17,25.70
2006,12,15,09,18,22.50
2006,12,15,09,19,20.90
2006,12,15,09,20,29.00
2006,12,15,09,21,17.70
2006,12,15,09,22,20.90
2006,12,15,09,23,30.60
2006,12,15,09,24,27.40
2006,12,15,09,25,30.60
2006,12,15,09,26,29.00
2006,12,15,09,27,29.00
2006,12,15,09,28,27.40
2006,12,15,09,29,24.20
2006,12,15,09,30,22.50
2006,12,15,09,31,17.70
2006,12,15,09,32,25.70
2006,12,15,09,33,24.20
2006,12,15,09,34,25.70
2006,12,15,09,35,27.40
2006,12,15,09,36,30.60
2006,12,15,09,37,37.00
2006,12,15,09,38,32.20
2006,12,15,09,39,41.80
2006,12,15,09,40,22.50
2006,12,15,09,41,20.90
2006,12,15,09,42,27.40
2006,12,15,09,43,35.40
2006,12,15,09,44,29.00
2006,12,15,09,45,27.40
2006,12,15,09,46,19.30
2006,12,15,09,47,24.20
2006,12,15,09,48,35.40
2006,12,15,09,49,33.80
2006,12,15,09,50,29.00
2006,12,15,09,51,14.50
2006,12,15,09,52,25.70
2006,12,15,09,53,30.60
2006,12,15,09,54,17.70
2006,12,15,09,55,27.40
2006,12,15,09,56,37.00
2006,12,15,09,57,33.80
2006,12,15,09,58,30.60
2006,12,15,09,59,33.80
2006,12,15,10,00,29.00
2006,12,15,10,01,24.20
2006,12,15,10,02,33.80
2006,12,15,10,03,19.30
2006,12,15,10,04,17.70
2006,12,15,10,05,24.20
2006,12,15,10,06,32.20
2006,12,15,10,07,20.90
2006,12,15,10,08,17.70
2006,12,15,10,09,19.30
2006,12,15,10,10,24.20
2006,12,15,10,11,19.30
2006,12,15,10,12,16.10
2006,12,15,10,13,17.70
2006,12,15,10,14,11.30
2006,12,15,10,15,11.30
2006,12,15,10,16,11.30
2006,12,15,10,17,17.70
2006,12,15,10,18,17.70
2006,12,15,10,19,30.60
2006,12,15,10,20,27.40
2006,12,15,10,21,17.70
2006,12,15,10,22,22.50
2006,12,15,10,23,17.70
2006,12,15,10,24,19.30
2006,12,15,10,25,27.40
2006,12,15,10,26,27.40
2006,12,15,10,27,29.00
2006,12,15,10,28,37.00
2006,12,15,10,29,30.60
2006,12,15,10,30,12.90
2006,12,15,10,31,22.50
2006,12,15,10,32,29.00
2006,12,15,10,33,30.60
2006,12,15,10,34,20.90
2006,12,15,10,35,16.10
2006,12,15,10,36,19.30
2006,12,15,10,37,20.90
2006,12,15,10,38,25.70
2006,12,15,10,39,25.70
2006,12,15,10,40,14.50
2006,12,15,10,41,19.30
2006,12,15,10,42,20.90
2006,12,15,10,43,19.30
2006,12,15,10,44,29.00
2006,12,15,10,45,16.10
2006,12,15,10,46,24.20
2006,12,15,10,47,30.60
2006,12,15,10,48,30.60
2006,12,15,10,49,32.20
2006,12,15,10,50,37.00
2006,12,15,10,51,25.70
2006,12,15,10,52,27.40
2006,12,15,10,53,35.40
2006,12,15,10,54,29.00
2006,12,15,10,55,37.00
2006,12,15,10,56,25.70
2006,12,15,10,57,20.90
2006,12,15,10,58,22.50
2006,12,15,10,59,27.40
2006,12,15,11,00,24.20
2006,12,15,11,01,30.60
2006,12,15,11,02,30.60
2006,12,15,11,03,24.20
2006,12,15,11,04,24.20
2006,12,15,11,05,29.00
2006,12,15,11,06,25.70
2006,12,15,11,07,33.80
2006,12,15,11,08,33.80
2006,12,15,11,09,38.60
2006,12,15,11,10,32.20
2006,12,15,11,11,35.40
2006,12,15,11,12,25.70
2006,12,15,11,13,30.60
2006,12,15,11,14,25.70
2006,12,15,11,15,32.20
2006,12,15,11,16,30.60
2006,12,15,11,17,25.70
2006,12,15,11,18,22.50
2006,12,15,11,19,22.50
2006,12,15,11,20,33.80
2006,12,15,11,21,25.70
2006,12,15,11,22,17.70
2006,12,15,11,23,30.60
2006,12,15,11,24,27.40
2006,12,15,11,25,33.80
2006,12,15,11,26,22.50
2006,12,15,11,27,22.50
2006,12,15,11,28,24.20
2006,12,15,11,29,29.00
2006,12,15,11,30,25.70
2006,12,15,11,31,14.50
2006,12,15,11,32,29.00
2006,12,15,11,33,29.00
2006,12,15,11,34,3.20
2006,12,15,11,35,37.00
2006,12,15,11,36,25.70
2006,12,15,11,37,29.00
2006,12,15,11,38,40.20
2006,12,15,11,39,30.60
2006,12,15,11,40,30.60
2006,12,15,11,41,17.70
2006,12,15,11,42,22.50
2006,12,15,11,43,20.90
2006,12,15,11,44,29.00
2006,12,15,11,45,19.30
2006,12,15,11,46,19.30
2006,12,15,11,47,29.00
2006,12,15,11,48,35.40
2006,12,15,11,49,27.40
2006,12,15,11,50,19.30
2006,12,15,11,51,22.50
2006,12,15,11,52,20.90
2006,12,15,11,53,24.20
2006,12,15,11,54,11.30
2006,12,15,11,55,24.20
2006,12,15,11,56,25.70
2006,12,15,11,57,20.90
2006,12,15,11,58,32.20
2006,12,15,11,59,25.70
2006,12,15,12,00,19.30
2006,12,15,12,01,29.00
2006,12,15,12,02,17.70
2006,12,15,12,03,16.10
2006,12,15,12,04,24.20
2006,12,15,12,05,14.50
2006,12,15,12,06,20.90
2006,12,15,12,07,20.90
2006,12,15,12,08,43.50
2006,12,15,12,09,41.80
2006,12,15,12,10,37.00
2006,12,15,12,11,25.70
2006,12,15,12,12,30.60
2006,12,15,12,13,32.20
2006,12,15,12,14,33.80
2006,12,15,12,15,37.00
2006,12,15,12,16,24.20
2006,12,15,12,17,29.00
2006,12,15,12,18,30.60
2006,12,15,12,19,22.50
2006,12,15,12,20,32.20
2006,12,15,12,21,25.70
2006,12,15,12,22,33.80
2006,12,15,12,23,27.40
2006,12,15,12,24,19.30
2006,12,15,12,25,29.00
2006,12,15,12,26,24.20
2006,12,15,12,27,9.60
2006,12,15,12,28,22.50
2006,12,15,12,29,22.50
2006,12,15,12,30,24.20
2006,12,15,12,31,20.90
2006,12,15,12,32,20.90
2006,12,15,12,33,24.20
2006,12,15,12,34,27.40
2006,12,15,12,35,24.20
2006,12,15,12,36,24.20
2006,12,15,12,37,11.30
2006,12,15,12,38,29.00
2006,12,15,12,39,29.00
2006,12,15,12,40,24.20
2006,12,15,12,41,20.90
2006,12,15,12,42,22.50
2006,12,15,12,43,25.70
2006,12,15,12,44,30.60
2006,12,15,12,45,24.20
2006,12,15,12,46,27.40
2006,12,15,12,47,22.50
2006,12,15,12,48,37.00
2006,12,15,12,49,9.60
2006,12,15,12,50,29.00
2006,12,15,12,51,43.50
2006,12,15,12,52,25.70
2006,12,15,12,53,20.90
2006,12,15,12,54,19.30
2006,12,15,12,55,29.00
2006,12,15,12,56,32.20
2006,12,15,12,57,32.20
2006,12,15,12,58,30.60
2006,12,15,12,59,37.00
2006,12,15,13,00,40.20
2006,12,15,13,01,27.40
2006,12,15,13,02,27.40
2006,12,15,13,03,40.20
2006,12,15,13,04,24.20
2006,12,15,13,05,19.30
2006,12,15,13,06,29.00
2006,12,15,13,07,32.20
2006,12,15,13,08,19.30
2006,12,15,13,09,27.40
2006,12,15,13,10,20.90
2006,12,15,13,11,20.90
2006,12,15,13,12,12.90
2006,12,15,13,13,24.20
2006,12,15,13,14,22.50
2006,12,15,13,15,27.40
2006,12,15,13,16,24.20
2006,12,15,13,17,16.10
2006,12,15,13,18,11.30
2006,12,15,13,19,8.10
2006,12,15,13,20,16.10
2006,12,15,13,21,20.90
2006,12,15,13,22,17.70
2006,12,15,13,23,20.90
2006,12,15,13,24,20.90
2006,12,15,13,25,14.50
2006,12,15,13,26,14.50
2006,12,15,13,27,27.40
2006,12,15,13,28,25.70
2006,12,15,13,29,27.40
2006,12,15,13,30,32.20
2006,12,15,13,31,24.20
2006,12,15,13,32,14.50
2006,12,15,13,33,14.50
2006,12,15,13,34,22.50
2006,12,15,13,35,16.10
2006,12,15,13,36,24.20
2006,12,15,13,37,20.90
2006,12,15,13,38,14.50
2006,12,15,13,39,20.90
2006,12,15,13,40,16.10
2006,12,15,13,41,19.30
2006,12,15,13,42,17.70
2006,12,15,13,43,16.10
2006,12,15,13,44,22.50
2006,12,15,13,45,20.90
2006,12,15,13,46,8.10
2006,12,15,13,47,4.80
2006,12,15,13,48,9.60
2006,12,15,13,49,14.50
2006,12,15,13,50,16.10
2006,12,15,13,51,17.70
2006,12,15,13,52,16.10
2006,12,15,13,53,12.90
2006,12,15,13,54,19.30
2006,12,15,13,55,17.70
2006,12,15,13,56,14.50
2006,12,15,13,57,12.90
2006,12,15,13,58,17.70
2006,12,15,13,59,16.10
2006,12,15,14,00,8.10
2006,12,15,14,01,9.60
2006,12,15,14,02,16.10
2006,12,15,14,03,14.50
2006,12,15,14,04,14.50
2006,12,15,14,05,11.30
2006,12,15,14,06,9.60
2006,12,15,14,07,11.30
2006,12,15,14,08,17.70
2006,12,15,14,09,17.70
2006,12,15,14,10,8.10
2006,12,15,14,11,9.60
2006,12,15,14,12,14.50
2006,12,15,14,13,19.30
2006,12,15,14,14,17.70
2006,12,15,14,15,11.30
2006,12,15,14,16,12.90
2006,12,15,14,17,17.70
2006,12,15,14,18,19.30
2006,12,15,14,19,8.10
2006,12,15,14,20,12.90
2006,12,15,14,21,17.70
2006,12,15,14,22,9.60
2006,12,15,14,23,17.70
2006,12,15,14,24,19.30
2006,12,15,14,25,11.30
2006,12,15,14,26,8.10
2006,12,15,14,27,8.10
2006,12,15,14,28,9.60
2006,12,15,14,29,9.60
2006,12,15,14,30,8.10
2006,12,15,14,31,3.20
2006,12,15,14,32,3.20
2006,12,15,14,33,3.20
2006,12,15,14,34,9.60
2006,12,15,14,35,16.10
2006,12,15,14,36,6.40
2006,12,15,14,37,9.60
2006,12,15,14,38,11.30
2006,12,15,14,39,6.40
2006,12,15,14,40,6.40
2006,12,15,14,41,11.30
2006,12,15,14,42,16.10
2006,12,15,14,43,20.90
2006,12,15,14,44,16.10
2006,12,15,14,45,14.50
2006,12,15,14,46,14.50
2006,12,15,14,47,11.30
2006,12,15,14,48,9.60
2006,12,15,14,49,11.30
2006,12,15,14,50,17.70
2006,12,15,14,51,11.30
2006,12,15,14,52,9.60
2006,12,15,14,53,8.10
2006,12,15,14,54,9.60
2006,12,15,14,55,14.50
2006,12,15,14,56,11.30
2006,12,15,14,57,9.60
2006,12,15,14,58,16.10
2006,12,15,14,59,8.10
2006,12,15,15,00,14.50
2006,12,15,15,01,12.90
2006,12,15,15,02,6.40
2006,12,15,15,03,4.80
2006,12,15,15,04,4.80
2006,12,15,15,05,3.20
2006,12,15,15,06,3.20
2006,12,15,15,07,6.40
2006,12,15,15,08,8.10
2006,12,15,15,09,6.40
2006,12,15,15,10,11.30
2006,12,15,15,11,14.50
2006,12,15,15,12,8.10
2006,12,15,15,13,11.30
2006,12,15,15,14,8.10
2006,12,15,15,15,8.10
2006,12,15,15,16,8.10
2006,12,15,15,17,6.40
2006,12,15,15,18,6.40
2006,12,15,15,19,4.80
2006,12,15,15,20,4.80
2006,12,15,15,21,8.10
2006,12,15,15,22,6.40
2006,12,15,15,23,4.80
2006,12,15,15,24,4.80
2006,12,15,15,25,3.20
2006,12,15,15,26,6.40
2006,12,15,15,27,6.40
2006,12,15,15,28,8.10
2006,12,15,15,29,4.80
2006,12,15,15,30,4.80
2006,12,15,15,31,6.40
2006,12,15,15,32,4.80
2006,12,15,15,33,4.80
2006,12,15,15,34,4.80
2006,12,15,15,35,3.20
2006,12,15,15,36,4.80
2006,12,15,15,37,1.60
2006,12,15,15,38,0.00
2006,12,15,15,39,0.00
2006,12,15,15,40,3.20
2006,12,15,15,41,3.20
2006,12,15,15,42,1.60
2006,12,15,15,43,4.80
2006,12,15,15,44,4.80
2006,12,15,15,45,4.80
2006,12,15,15,46,1.60
2006,12,15,15,47,0.00
2006,12,15,15,48,0.00
2006,12,15,15,49,3.20
2006,12,15,15,50,1.60
2006,12,15,15,51,3.20
2006,12,15,15,52,0.00
2006,12,15,15,53,1.60
2006,12,15,15,54,0.00
2006,12,15,15,55,1.60
2006,12,15,15,56,0.00
2006,12,15,15,57,0.00
2006,12,15,15,58,0.00
2006,12,15,15,59,1.60
2006,12,15,16,00,1.60
2006,12,15,16,01,4.80
2006,12,15,16,02,4.80
2006,12,15,16,03,1.60
2006,12,15,16,04,3.20
2006,12,15,16,05,1.60
2006,12,15,16,06,4.80
2006,12,15,16,07,4.80
2006,12,15,16,08,6.40
2006,12,15,16,09,6.40
2006,12,15,16,10,3.20
2006,12,15,16,11,3.20
2006,12,15,16,12,3.20
2006,12,15,16,13,1.60
2006,12,15,16,14,3.20
2006,12,15,16,15,3.20
2006,12,15,16,16,4.80
2006,12,15,16,17,4.80
2006,12,15,16,18,4.80
2006,12,15,16,19,6.40
2006,12,15,16,20,6.40
2006,12,15,16,21,1.60
2006,12,15,16,22,8.10
2006,12,15,16,23,9.60
2006,12,15,16,24,6.40
2006,12,15,16,25,4.80
2006,12,15,16,26,4.80
2006,12,15,16,27,8.10
2006,12,15,16,28,9.60
2006,12,15,16,29,6.40
2006,12,15,16,30,6.40
2006,12,15,16,31,8.10
2006,12,15,16,32,8.10
2006,12,15,16,33,16.10
2006,12,15,16,34,16.10
2006,12,15,16,35,9.60
2006,12,15,16,36,9.60
2006,12,15,16,37,4.80
2006,12,15,16,38,4.80
2006,12,15,16,39,8.10
2006,12,15,16,40,11.30
2006,12,15,16,41,9.60
2006,12,15,16,42,6.40
2006,12,15,16,43,8.10
2006,12,15,16,44,8.10
2006,12,15,16,45,3.20
2006,12,15,16,46,8.10
2006,12,15,16,47,11.30
2006,12,15,16,48,6.40
2006,12,15,16,49,4.80
2006,12,15,16,50,1.60
2006,12,15,16,51,1.60
2006,12,15,16,52,4.80
2006,12,15,16,53,4.80
2006,12,15,16,54,3.20
2006,12,15,16,55,0.00
2006,12,15,16,56,0.00
2006,12,15,16,57,3.20
2006,12,15,16,58,1.60
2006,12,15,16,59,0.00
2006,12,15,17,00,0.00
2006,12,15,17,01,0.00
2006,12,15,17,02,0.00
2006,12,15,17,03,4.80
2006,12,15,17,04,4.80
2006,12,15,17,05,4.80
2006,12,15,17,06,3.20
2006,12,15,17,07,1.60
2006,12,15,17,08,3.20
2006,12,15,17,09,0.00
2006,12,15,17,10,0.00
2006,12,15,17,11,0.00
2006,12,15,17,12,0.00
2006,12,15,17,13,0.00
2006,12,15,17,14,8.10
2006,12,15,17,15,4.80
2006,12,15,17,16,1.60
2006,12,15,17,17,3.20
2006,12,15,17,18,3.20
2006,12,15,17,19,4.80
2006,12,15,17,20,4.80
2006,12,15,17,21,3.20
2006,12,15,17,22,0.00
2006,12,15,17,23,0.00
2006,12,15,17,24,8.10
2006,12,15,17,25,4.80
2006,12,15,17,26,4.80
2006,12,15,17,27,4.80